TimeMDT,TemperatureF,Dew PointF,Humidity,Sea Level PressureIn,VisibilityMPH,Wind Direction,Wind SpeedMPH,Gust SpeedMPH,PrecipitationIn,Events,Conditions,WindDirDegrees,DateUTC
12:53 AM,35.1,28.0,76,30.15,10.0,NW,3.5,-,N/A,,Clear,310,2013-10-17 06:53:00
1:53 AM,33.1,27.0,78,30.15,10.0,WNW,4.6,-,N/A,,Clear,290,2013-10-17 07:53:00
2:53 AM,33.1,27.0,78,30.15,10.0,West,4.6,-,N/A,,Clear,280,2013-10-17 08:53:00
3:53 AM,34.0,27.0,75,30.14,10.0,NW,4.6,-,N/A,,Clear,310,2013-10-17 09:53:00
4:53 AM,34.0,28.0,79,30.14,10.0,Calm,Calm,-,N/A,,Clear,0,2013-10-17 10:53:00
5:53 AM,34.0,28.0,79,30.14,10.0,WNW,3.5,-,N/A,,Clear,290,2013-10-17 11:53:00
6:53 AM,30.0,26.1,85,30.17,10.0,Calm,Calm,-,N/A,,Clear,0,2013-10-17 12:53:00
7:53 AM,30.0,26.1,85,30.19,10.0,Calm,Calm,-,N/A,,Clear,0,2013-10-17 13:53:00
8:53 AM,35.1,28.9,78,30.18,10.0,Calm,Calm,-,N/A,,Clear,0,2013-10-17 14:53:00
9:53 AM,41.0,28.9,62,30.15,10.0,Calm,Calm,-,N/A,,Clear,0,2013-10-17 15:53:00
10:53 AM,43.0,30.0,60,30.14,10.0,East,4.6,-,N/A,,Clear,90,2013-10-17 16:53:00
11:53 AM,46.0,30.0,54,30.12,10.0,ESE,5.8,-,N/A,,Clear,120,2013-10-17 17:53:00
12:53 PM,46.9,28.0,48,30.09,10.0,SE,3.5,-,N/A,,Clear,140,2013-10-17 18:53:00
1:53 PM,50.0,28.0,43,30.04,10.0,Calm,Calm,-,N/A,,Clear,0,2013-10-17 19:53:00
2:53 PM,52.0,28.0,40,30.00,10.0,East,8.1,-,N/A,,Overcast,80,2013-10-17 20:53:00
3:53 PM,54.0,27.0,35,29.98,10.0,Calm,Calm,-,N/A,,Overcast,0,2013-10-17 21:53:00
4:53 PM,55.0,27.0,34,29.96,10.0,Variable,4.6,-,N/A,,Overcast,0,2013-10-17 22:53:00
5:53 PM,54.0,28.0,37,29.96,10.0,East,4.6,-,N/A,,Overcast,90,2013-10-17 23:53:00
6:53 PM,51.1,28.9,43,29.99,10.0,SSE,3.5,-,N/A,,Overcast,150,2013-10-18 00:53:00
7:53 PM,50.0,28.9,44,30.01,10.0,Calm,Calm,-,N/A,,Overcast,0,2013-10-18 01:53:00
8:53 PM,46.9,27.0,46,30.03,10.0,NW,5.8,-,N/A,,Partly Cloudy,320,2013-10-18 02:53:00
9:53 PM,48.0,23.0,37,30.02,10.0,North,11.5,-,N/A,,Clear,360,2013-10-18 03:53:00
10:53 PM,43.0,27.0,53,30.05,10.0,NNE,8.1,-,N/A,,Clear,30,2013-10-18 04:53:00
11:53 PM,44.1,24.1,45,30.06,10.0,North,10.4,-,N/A,,Clear,10,2013-10-18 05:53:00